Weather History for KHEQ - December, 2013

Change the Weather History Date:

Monday, December 16, 2013

  Actual Average Record
Temperature  
Mean Temperature 44 °F -  
Max Temperature 62 °F 41 °F 62 °F (2013)
Min Temperature 26 °F 16 °F 26 °F (2013)
Degree Days  
Heating Degree Days 21    
Moisture  
Dew Point 19 °F    
Average Humidity 37    
Maximum Humidity 74    
Minimum Humidity 17    
Precipitation  
Precipitation 0.00 in - - ()
Sea Level Pressure  
Sea Level Pressure 30.10 in    
Wind  
Wind Speed 11 mph (WNW)    
Max Wind Speed 24 mph    
Max Gust Speed 31 mph    
Visibility 10 miles    
Events      
Averages and records for this station are not official NWS values.
T = Trace of Precipitation, MM = Missing Value Source: NWS Daily Summary

Daily Weather History Graph

Daily Weather History Graph

Search for Another Location

Airport or City:

Trip Planner

Search our weather history database for the weather conditions in past years. The results will help you decide how hot, cold, wet, or windy it might be!

Date:

Astronomy

Dec. 16, 2013 Rise Set
Actual Time 7:06 AM MST 4:23 PM MST
Civil Twilight 6:35 AM MST 4:54 PM MST
Nautical Twilight 6:01 AM MST 5:28 PM MST
Astronomical Twilight 5:27 AM MST 6:01 PM MST
Moon 4:15 PM MST (12/16) 6:16 AM MST (12/16)
Length of Visible Light 10h 18m
Length of Day
9h 16m
Full, 100% of the Moon is Illuminated
Dec 16
Full
Dec 17
Full
Dec 25
Last Quarter
Jan 1
New
Jan 7
First Quarter

Hourly Weather History & Observations

Time (MST) Temp. Windchill Dew Point Humidity Pressure Visibility Wind Dir Wind Speed Gust Speed Precip Events Conditions
12:15 AM 33.8 °F 25.8 °F 21.2 °F 60% 30.05 in 10.0 mi West 10.4 mph - N/A   Clear
12:35 AM 32.0 °F 25.6 °F 21.2 °F 64% 30.04 in 10.0 mi WSW 6.9 mph - N/A   Clear
12:55 AM 30.2 °F 22.6 °F 19.4 °F 64% 30.04 in 10.0 mi WSW 8.1 mph - N/A   Clear
1:15 AM 32.0 °F 23.6 °F 21.2 °F 64% 30.04 in 10.0 mi WSW 10.4 mph - N/A   Clear
1:35 AM 30.2 °F 22.6 °F 19.4 °F 64% 30.04 in 10.0 mi West 8.1 mph - N/A   Clear
1:55 AM 30.2 °F 23.4 °F 19.4 °F 64% 30.04 in 10.0 mi West 6.9 mph - N/A   Clear
2:15 AM 30.2 °F 21.9 °F 19.4 °F 64% 30.04 in 10.0 mi WSW 9.2 mph - N/A   Clear
2:35 AM 28.4 °F 19.1 °F 17.6 °F 64% 30.04 in 10.0 mi West 10.4 mph - N/A   Clear
2:55 AM 26.6 °F 17.5 °F 19.4 °F 74% 30.05 in 10.0 mi West 9.2 mph - N/A   Clear
3:15 AM 28.4 °F 20.4 °F 17.6 °F 64% 30.05 in 10.0 mi WSW 8.1 mph - N/A   Clear
3:35 AM 26.6 °F 17.5 °F 17.6 °F 69% 30.05 in 10.0 mi West 9.2 mph - N/A   Clear
3:55 AM 28.4 °F 18.5 °F 19.4 °F 69% 30.04 in 10.0 mi WNW 11.5 mph - N/A   Clear
4:15 AM 41.0 °F 33.5 °F 21.2 °F 45% 30.05 in 10.0 mi WNW 13.8 mph - N/A   Clear
4:35 AM 42.8 °F 35.8 °F 19.4 °F 39% 30.05 in 10.0 mi WNW 13.8 mph 21.9 mph N/A   Clear
4:55 AM 42.8 °F 36.2 °F 19.4 °F 39% 30.06 in 10.0 mi WNW 12.7 mph 21.9 mph N/A   Clear
5:15 AM 42.8 °F 37.5 °F 19.4 °F 39% 30.06 in 10.0 mi WNW 9.2 mph - N/A   Clear
5:35 AM 41.0 °F 34.3 °F 19.4 °F 42% 30.06 in 10.0 mi WNW 11.5 mph 16.1 mph N/A   Clear
5:55 AM 42.8 °F 35.8 °F 19.4 °F 39% 30.06 in 10.0 mi WNW 13.8 mph 21.9 mph N/A   Clear
6:15 AM 42.8 °F 35.8 °F 19.4 °F 39% 30.06 in 10.0 mi WNW 13.8 mph 19.6 mph N/A   Clear
6:35 AM 42.8 °F 35.8 °F 19.4 °F 39% 30.07 in 10.0 mi WNW 13.8 mph - N/A   Clear
6:55 AM 42.8 °F 35.8 °F 19.4 °F 39% 30.08 in 10.0 mi WNW 13.8 mph - N/A   Clear
7:15 AM 41.0 °F 33.9 °F 19.4 °F 42% 30.08 in 10.0 mi WNW 12.7 mph - N/A   Clear
7:35 AM 42.8 °F 35.1 °F 19.4 °F 39% 30.09 in 10.0 mi WNW 16.1 mph 20.7 mph N/A   Clear
7:55 AM 41.0 °F 34.3 °F 19.4 °F 42% 30.10 in 10.0 mi WNW 11.5 mph - N/A   Clear
8:15 AM 42.8 °F 36.2 °F 21.2 °F 42% 30.10 in 10.0 mi WNW 12.7 mph 18.4 mph N/A   Clear
8:35 AM 44.6 °F 39.7 °F 19.4 °F 37% 30.11 in 10.0 mi WNW 9.2 mph - N/A   Clear
8:55 AM 46.4 °F 42.4 °F 21.2 °F 37% 30.13 in 10.0 mi NW 8.1 mph - N/A   Clear
9:15 AM 51.8 °F - 23.0 °F 33% 30.13 in 10.0 mi NW 6.9 mph - N/A   Clear
9:35 AM 53.6 °F - 23.0 °F 30% 30.14 in 10.0 mi NW 9.2 mph - N/A   Clear
9:55 AM 53.6 °F - 21.2 °F 28% 30.14 in 10.0 mi NW 8.1 mph - N/A   Clear
10:15 AM 55.4 °F - 21.2 °F 26% 30.13 in 10.0 mi NW 10.4 mph - N/A   Clear
10:35 AM 59.0 °F - 23.0 °F 25% 30.12 in 10.0 mi NW 8.1 mph - N/A   Clear
10:55 AM 59.0 °F - 21.2 °F 23% 30.11 in 10.0 mi NW 10.4 mph 18.4 mph N/A   Clear
11:15 AM 59.0 °F - 19.4 °F 22% 30.10 in 10.0 mi NW 15.0 mph 20.7 mph N/A   Clear
11:35 AM 60.8 °F - 21.2 °F 22% 30.09 in 10.0 mi NW 12.7 mph 19.6 mph N/A   Clear
11:55 AM 60.8 °F - 19.4 °F 20% 30.08 in 10.0 mi WNW 15.0 mph 23.0 mph N/A   Clear
12:15 PM 60.8 °F - 19.4 °F 20% 30.07 in 10.0 mi NW 17.3 mph 24.2 mph N/A   Clear
12:35 PM 62.6 °F - 19.4 °F 19% 30.06 in 10.0 mi WNW 20.7 mph - N/A   Clear
12:55 PM 62.6 °F - 19.4 °F 19% 30.05 in 10.0 mi NW 12.7 mph 25.3 mph N/A   Clear
1:15 PM 62.6 °F - 19.4 °F 19% 30.05 in 10.0 mi WNW 15.0 mph 23.0 mph N/A   Clear
1:35 PM 62.6 °F - 17.6 °F 18% 30.05 in 10.0 mi WNW 18.4 mph 25.3 mph N/A   Clear
1:55 PM 62.6 °F - 17.6 °F 18% 30.05 in 10.0 mi NW 21.9 mph 27.6 mph N/A   Clear
2:15 PM 62.6 °F - 17.6 °F 18% 30.06 in 10.0 mi NW 19.6 mph 31.1 mph N/A   Clear
2:35 PM 62.6 °F - 17.6 °F 18% 30.08 in 10.0 mi NW 24.2 mph 28.8 mph N/A   Clear
2:55 PM 60.8 °F - 15.8 °F 17% 30.08 in 10.0 mi NNW 17.3 mph 24.2 mph N/A   Clear
3:15 PM 60.8 °F - 17.6 °F 19% 30.09 in 10.0 mi NNW 12.7 mph - N/A   Clear
3:35 PM 59.0 °F - 17.6 °F 20% 30.09 in 10.0 mi NNW 9.2 mph - N/A   Clear
3:55 PM 55.4 °F - 17.6 °F 23% 30.10 in 10.0 mi NW 6.9 mph - N/A   Clear
4:15 PM 53.6 °F - 17.6 °F 24% 30.10 in 10.0 mi WNW 4.6 mph - N/A   Clear
4:35 PM 51.8 °F - 19.4 °F 28% 30.10 in 10.0 mi NW 5.8 mph - N/A   Clear
4:55 PM 53.6 °F - 19.4 °F 26% 30.10 in 10.0 mi NW 10.4 mph - N/A   Clear
5:15 PM 53.6 °F - 17.6 °F 24% 30.11 in 10.0 mi NW 11.5 mph - N/A   Clear
5:35 PM 53.6 °F - 19.4 °F 26% 30.11 in 10.0 mi NW 11.5 mph - N/A   Clear
5:55 PM 50.0 °F - 17.6 °F 28% 30.12 in 10.0 mi NW 10.4 mph - N/A   Clear
6:15 PM 51.8 °F - 17.6 °F 26% 30.12 in 10.0 mi WNW 10.4 mph 18.4 mph N/A   Clear
6:35 PM 51.8 °F - 17.6 °F 26% 30.13 in 10.0 mi WNW 15.0 mph 24.2 mph N/A   Clear
6:55 PM 51.8 °F - 17.6 °F 26% 30.13 in 10.0 mi WNW 15.0 mph 24.2 mph N/A   Clear
7:15 PM 48.2 °F - 15.8 °F 27% 30.14 in 10.0 mi WNW 15.0 mph 20.7 mph N/A   Clear
7:35 PM 48.2 °F - 17.6 °F 30% 30.15 in 10.0 mi WNW 16.1 mph 25.3 mph N/A   Clear
7:55 PM 46.4 °F 40.4 °F 15.8 °F 29% 30.15 in 10.0 mi WNW 13.8 mph 20.7 mph N/A   Clear
8:15 PM 44.6 °F 38.8 °F 15.8 °F 31% 30.16 in 10.0 mi WNW 11.5 mph - N/A   Clear
8:35 PM 41.0 °F 34.7 °F 15.8 °F 36% 30.16 in 10.0 mi WNW 10.4 mph - N/A   Clear
8:55 PM 44.6 °F 38.1 °F 15.8 °F 31% 30.16 in 10.0 mi WNW 13.8 mph 18.4 mph N/A   Clear
9:15 PM 42.8 °F 36.6 °F 15.8 °F 34% 30.17 in 10.0 mi WNW 11.5 mph - N/A   Clear
9:35 PM 37.4 °F 30.3 °F 17.6 °F 45% 30.18 in 10.0 mi WNW 10.4 mph - N/A   Clear
9:55 PM 41.0 °F 35.2 °F 17.6 °F 39% 30.20 in 10.0 mi NNW 9.2 mph - N/A   Clear
10:15 PM 41.0 °F 34.7 °F 17.6 °F 39% 30.20 in 10.0 mi NW 10.4 mph - N/A   Clear
10:55 PM 37.4 °F 31.4 °F 17.6 °F 45% 30.21 in 10.0 mi NNW 8.1 mph - N/A   Clear
11:15 PM 41.0 °F 35.8 °F 19.4 °F 42% 30.21 in 10.0 mi NNW 8.1 mph - N/A   Clear
11:35 PM 41.0 °F 35.2 °F 21.2 °F 45% 30.21 in 10.0 mi NNW 9.2 mph - N/A   Clear
11:55 PM 41.0 °F 35.2 °F 21.2 °F 45% 30.22 in 10.0 mi NNW 9.2 mph - N/A   Clear